SCP
0 0 0 0 0 0 0 0 0 0 0 0 0 0 0 0 0 0 0 0 0 0 0 0 0 0 0 0 0 0 0 0 0 0 0 0 0 0
0 0 0 0 0 0 0 0 0 0 0 0 0 0 0 0 0 0 0 0 0 0 0 0 0 0 0 0 0 0 0 0 0 0 0 0 0 0
0 0 0 0 0 0 0 0 0 0 0 0 0 0 0 0 0 0 0 0 0 0 0 0 0 0 0 0 0 0 0 0 0 0 0 0 0 0
0 0 0 0 0 0 0 0 0 0 0 0 0 0 0 0 0 0 0 0 0 0 0 0 0 0 0 0 0 0 0 0 0 0 0 0 0 0
0 0 0 0 0 0 0 0 0 0 0 0 0 0 0 0 0 0 0 0 0 0 0 0 0 0 0 0 0 0 0 0 0 0 0 0 0 0
0 0 0 0 0 0 0 0 0 0 0 0 0 0 0 0 0 0 0 0 0 0 0 0 0 0 0 0 0 -0 0 0 0 0 0 0 0 0
0 0 0 0 0 0 0 0 0 0 0 0 0 0 0 0 0 0 0 0 0 0 0 0 0 0 0 0 0 0 0 0 0 0 0 0 0 0
0 0 0 0 0 0 0 0 0 0 0 0 0 0 0 0 0 0 0 0 0 0 0 0 0 0 0 0 0 0 0 0 0 0 0 0 0 0
0 0 0 0 0 0 0 0 0 0 0 0 0 0 0 0 0 0 0 0 0 0 0 0 0 -0 -0 0 0 0 0 0 0 0 0 0 0 0
0 0 0 0 0 0 0 0 0 0 0 0 0 0 0 0 0 0 0 0 0 0 0 0 0 0 0 0 0 0 0 0 0 0 0 0 0 0
0 0 0 0 0 0 0 0 0 0 0 0 0 0 0 0 0 0 0 0 0 0 0 0 0 0 0 0 0 0 0 0 0 0 0 0 0 0
0 0 0 0 0 0 0 0 0 0 0 -0 0 0 0 0 0 0 0 0 0 0 0 0 0 0 0 0 0 -0 0 0 0 0 0 0 0 0
0 0 0 0 0 0 0 0 0 0 0 0 0 0 0 0 0 0 0 0 0 0 0 0 0 0 0 0 0 -0 0 0 0 0 0 0 0 0
0 0 0 0 0 0 0 0 0 0 0 0 0 0 0 0 0 0 0 0 0 0 0 0 0 0 0 -0 0 0 0 0 0 0 0 0 0 0
0 0 0 0 0 0 0 0 0 0 0 0 0 0 0 0 0 0 0 0 0 0 0 0 0 0 0 -0 0 0 0 0 0 0 0 0 0 0
0 0 0 0 0 0 0 0 0 0 0 0 0 0 0 0 0 0 0 0 0 0 0 0 0 0 0 -0 -0 0 0 0 0 0 0 0 0 0
-0 0 0 0 0 0 0 0 0 0 0 0 0 0 0 0 0 0 0 0 0 0 0 0 0 0 0 0 0 0 0 0 0 0 0 0 0 0
0 0 0 0 0 0 0 0 0 0 0 0 0 0 0 0 0 0 0 0 0 0 0 0 0 0 0 0 0 0 -0 -0 0 0 0 0 0 0
-0 0 0 0 0 0 0 0 0 0 0 0 0 0 0 0 0 0 0 0 0 0 0 0 0 0 0 0 0 -0 0 0 0 0 0 0 0 0
-0 0 0 0 0 0 0 0 0 -0 0 0 0 0 0 0 0 0 0 0 0 0 0 0 0 0 0 0 0 0 -0 0 0 0 0 0 0 0
0 0 -0 -0 0 0 -0 0 -0 -0 -0 0 0 0 0 0 0 0 0 0 0 0 0 0 0 0 0 0 0 0 0 0 0 0 0 0 0 0
0 0 -0 -0 -0 -0 -0 -0 -0 -0 -0 0 0 0 0 0 0 0 0 0 0 0 0 0 0 0 0 0 0 0 0 0 0 0 0 0 0 0
0 -0 -0 -0 -0 -0 0 -0 -0 -0 -0 -0 -0 0 0 0 0 0 0 0 0 0 0 0 0 0 0 0 0 0 0 0 0 0 0 0 0 0
Wind_Speed_500mb
33 30 28 23 24 23 25 29 35 45 41 29 42 40 40 40 41 44 47 49 55 55 49 51 51 48 41 45 42 39 41 42 41 36 29 30 33 37
24 30 28 21 24 23 24 28 31 35 39 44 41 44 43 48 42 45 47 49 43 48 60 51 47 50 44 43 43 40 41 40 36 41 38 31 33 34
28 26 25 28 22 24 26 26 31 34 39 41 43 40 47 49 48 45 45 40 38 42 45 47 45 48 45 38 39 40 40 41 36 34 38 35 34 38
26 25 23 24 27 25 25 27 31 33 33 43 44 42 44 48 49 53 44 39 42 38 49 43 43 42 41 42 40 41 41 39 39 33 33 29 31 34
24 26 27 27 27 27 30 28 29 33 33 42 44 41 46 52 50 46 47 43 41 45 45 42 37 46 41 39 36 40 41 35 38 34 30 30 33 31
24 26 26 26 31 32 31 31 30 35 35 38 40 43 48 50 53 54 58 50 54 51 32 32 39 50 45 39 42 46 41 37 35 35 31 33 33 34
23 23 24 30 33 33 36 33 35 34 35 39 41 44 49 54 56 59 63 63 55 28 41 49 44 39 34 29 27 36 50 50 38 35 33 30 39 33
21 23 25 26 29 34 39 42 41 34 35 38 40 42 49 55 64 73 63 63 60 44 56 56 37 34 30 26 39 47 43 39 38 33 33 30 27 35
21 22 23 25 35 36 40 39 39 42 41 41 44 46 57 63 70 64 55 57 59 57 49 49 31 28 23 25 39 39 38 36 30 28 31 30 25 32
21 22 27 31 40 47 50 39 35 32 32 35 46 53 56 64 58 47 51 54 55 43 34 44 34 30 29 32 33 35 33 35 28 20 25 26 23 23
23 33 30 33 39 41 40 35 33 28 32 42 50 53 64 59 43 42 43 51 58 57 36 30 34 38 30 20 23 32 31 28 22 9 19 20 18 21
22 27 34 38 37 35 34 33 39 42 52 47 42 48 54 54 39 36 44 50 48 46 24 28 34 33 21 16 30 33 27 17 18 2 19 16 12 11
26 28 27 40 36 35 36 36 43 50 43 44 46 53 54 48 40 42 43 40 43 46 47 31 34 35 25 28 33 31 23 18 23 14 4 18 12 19
26 25 30 38 38 41 38 39 45 47 47 47 54 53 52 46 45 48 43 40 32 35 32 23 35 26 33 36 29 31 17 17 17 11 13 5 15 15
26 36 44 39 41 34 47 51 51 54 53 55 55 50 46 46 47 46 50 33 26 22 24 19 20 22 22 21 28 26 33 13 16 18 4 3 8 9
28 29 36 37 38 37 35 48 58 56 55 55 51 44 43 45 46 47 48 36 28 23 25 21 14 9 13 19 21 26 20 20 23 20 13 7 9 15
35 29 33 35 36 39 41 53 63 60 57 49 46 46 45 49 42 42 44 35 27 26 26 22 16 12 14 18 15 14 20 19 16 20 13 8 13 18
33 38 39 39 39 43 51 65 66 68 63 54 50 49 51 48 39 40 45 34 24 20 22 18 13 18 19 15 11 15 16 19 18 12 11 5 6 17
44 44 45 46 45 46 60 65 70 78 69 62 56 51 48 45 40 38 41 39 23 18 20 15 14 14 17 18 18 21 24 20 7 11 6 2 8 12
44 45 45 46 49 48 53 64 69 74 74 66 58 53 51 50 44 36 34 33 32 23 21 19 16 14 18 19 24 27 21 16 8 13 13 6 3 11
43 43 44 46 48 49 53 58 66 76 79 72 65 58 52 50 47 41 33 24 21 23 23 18 16 14 18 20 23 27 15 11 11 18 11 3 4 8
42 43 44 45 47 50 55 61 65 77 81 77 71 59 51 50 49 44 37 33 24 20 21 20 19 17 20 21 21 14 9 10 13 15 10 7 2 5
42 42 42 45 48 52 57 62 65 74 78 80 74 63 54 48 42 40 39 41 39 25 24 21 21 19 15 14 11 10 12 10 13 19 25 24 13 4
Wind_Direction_500mb
312 314 320 309 303 301 311 315 316 316 322 331 333 334 327 322 317 321 318 311 319 323 320 318 316 317 311 297 292 289 285 280 275 278 276 252 238 233
314 309 320 301 308 311 314 313 311 312 309 318 327 321 318 324 324 319 314 325 320 314 313 315 315 313 315 312 298 288 283 281 277 271 274 270 251 246
318 320 318 317 316 314 307 309 308 309 306 315 319 320 321 321 321 323 319 319 317 306 302 313 310 312 313 316 318 308 288 279 276 274 268 272 264 247
326 326 323 321 317 317 307 306 308 308 313 306 320 321 321 323 319 325 320 318 313 322 308 319 312 309 308 316 315 313 306 281 272 270 262 261 265 256
330 328 327 325 323 316 313 316 306 309 309 307 311 319 319 326 322 322 322 319 317 315 320 315 313 306 310 313 313 311 312 295 271 262 262 246 254 243
332 331 328 327 321 319 319 311 306 308 312 312 315 316 318 323 322 321 321 321 323 328 321 314 307 313 321 330 335 328 308 301 279 262 252 246 242 232
331 332 323 324 318 320 315 307 312 309 309 314 314 316 317 320 321 322 320 324 326 331 314 311 321 321 319 330 298 291 300 301 284 262 247 247 242 229
334 330 332 347 312 329 317 314 316 314 304 309 309 308 312 316 319 322 323 326 325 330 327 330 328 322 321 314 299 309 319 309 286 261 242 240 243 232
339 340 341 324 323 321 319 320 322 312 313 316 317 307 310 318 317 319 320 321 320 328 326 324 336 323 323 308 309 323 327 328 301 264 233 229 234 220
349 340 342 336 322 324 322 322 319 314 310 302 301 310 312 320 319 314 317 317 319 325 329 313 332 327 323 315 300 310 333 323 319 269 222 219 225 223
358 340 342 339 332 333 335 328 328 331 309 309 315 319 317 327 321 312 316 315 317 320 336 303 327 332 327 312 313 323 325 331 324 268 203 209 222 218
1 340 338 351 348 350 350 344 335 326 328 326 324 321 326 331 322 317 316 311 308 313 295 322 316 336 332 322 336 317 345 358 7 255 183 174 187 196
356 348 341 348 353 356 354 344 335 331 333 326 327 330 338 341 334 325 322 317 309 292 301 305 300 307 314 316 331 328 339 0 322 82 212 211 201 187
355 341 339 349 4 360 359 346 345 343 336 335 336 342 345 345 343 341 340 330 323 313 323 310 291 295 304 311 320 333 358 354 10 42 69 141 192 193
354 352 357 6 8 5 355 346 352 350 349 347 346 348 347 350 353 353 354 353 351 350 350 327 304 297 299 303 313 328 345 8 3 346 358 82 219 188
19 356 359 10 8 6 359 353 1 358 356 354 350 347 351 352 359 356 356 356 3 10 6 354 331 329 313 311 304 315 325 334 337 334 330 249 220 220
28 8 8 13 11 5 6 2 7 4 3 0 358 358 360 1 6 3 2 2 359 3 5 357 360 346 334 316 323 326 329 331 332 322 307 269 219 229
27 23 17 17 12 9 6 11 12 13 10 6 5 3 360 2 5 10 10 10 5 5 359 345 337 343 359 346 340 329 332 321 323 326 309 250 213 234
36 29 25 18 14 8 6 10 11 15 10 9 6 5 2 6 8 8 11 15 16 356 3 2 331 317 331 338 333 343 332 330 328 310 312 246 211 221
33 27 23 17 15 8 5 6 10 10 10 10 9 8 6 6 7 6 7 10 9 4 1 356 352 333 317 321 327 339 342 353 347 348 347 327 238 201
29 25 20 16 12 8 5 6 10 11 9 9 11 9 9 9 10 11 9 20 6 0 352 350 340 328 326 332 332 339 350 9 346 317 333 313 185 174
25 24 17 14 10 8 8 8 10 11 10 11 12 10 13 17 15 18 20 12 9 352 338 334 331 321 314 318 321 342 1 357 26 50 59 71 153 210
22 20 15 12 10 9 9 7 11 13 10 12 12 10 13 18 22 29 34 36 17 358 344 346 344 354 7 19 18 5 1 15 43 45 51 53 54 124
Wind_Speed_850mb
33 30 28 23 24 23 25 29 35 45 41 29 42 40 40 40 41 44 47 49 55 55 49 51 51 48 41 45 42 39 41 42 41 36 29 30 33 37
24 30 28 21 24 23 24 28 31 35 39 44 41 44 43 48 42 45 47 49 43 48 60 51 47 50 44 43 43 40 41 40 36 41 38 31 33 34
28 26 25 28 22 24 26 26 31 34 39 41 43 40 47 49 48 45 45 40 38 42 45 47 45 48 45 38 39 40 40 41 36 34 38 35 34 38
26 25 23 24 27 25 25 27 31 33 33 43 44 42 44 48 49 53 44 39 42 38 49 43 43 42 41 42 40 41 41 39 39 33 33 29 31 34
24 26 27 27 27 27 30 28 29 33 33 42 44 41 46 52 50 46 47 43 41 45 45 42 37 46 41 39 36 40 41 35 38 34 30 30 33 31
24 26 26 26 31 32 31 31 30 35 35 38 40 43 48 50 53 54 58 50 54 51 32 32 39 50 45 39 42 46 41 37 35 35 31 33 33 34
23 23 24 30 33 33 36 33 35 34 35 39 41 44 49 54 56 59 63 63 55 28 41 49 44 39 34 29 27 36 50 50 38 35 33 30 39 33
21 23 25 26 29 34 39 42 41 34 35 38 40 42 49 55 64 73 63 63 60 44 56 56 37 34 30 26 39 47 43 39 38 33 33 30 27 35
21 22 23 25 35 36 40 39 39 42 41 41 44 46 57 63 70 64 55 57 59 57 49 49 31 28 23 25 39 39 38 36 30 28 31 30 25 32
21 22 27 31 40 47 50 39 35 32 32 35 46 53 56 64 58 47 51 54 55 43 34 44 34 30 29 32 33 35 33 35 28 20 25 26 23 23
23 33 30 33 39 41 40 35 33 28 32 42 50 53 64 59 43 42 43 51 58 57 36 30 34 38 30 20 23 32 31 28 22 9 19 20 18 21
22 27 34 38 37 35 34 33 39 42 52 47 42 48 54 54 39 36 44 50 48 46 24 28 34 33 21 16 30 33 27 17 18 2 19 16 12 11
26 28 27 40 36 35 36 36 43 50 43 44 46 53 54 48 40 42 43 40 43 46 47 31 34 35 25 28 33 31 23 18 23 14 4 18 12 19
26 25 30 38 38 41 38 39 45 47 47 47 54 53 52 46 45 48 43 40 32 35 32 23 35 26 33 36 29 31 17 17 17 11 13 5 15 15
26 36 44 39 41 34 47 51 51 54 53 55 55 50 46 46 47 46 50 33 26 22 24 19 20 22 22 21 28 26 33 13 16 18 4 3 8 9
28 29 36 37 38 37 35 48 58 56 55 55 51 44 43 45 46 47 48 36 28 23 25 21 14 9 13 19 21 26 20 20 23 20 13 7 9 15
35 29 33 35 36 39 41 53 63 60 57 49 46 46 45 49 42 42 44 35 27 26 26 22 16 12 14 18 15 14 20 19 16 20 13 8 13 18
33 38 39 39 39 43 51 65 66 68 63 54 50 49 51 48 39 40 45 34 24 20 22 18 13 18 19 15 11 15 16 19 18 12 11 5 6 17
44 44 45 46 45 46 60 65 70 78 69 62 56 51 48 45 40 38 41 39 23 18 20 15 14 14 17 18 18 21 24 20 7 11 6 2 8 12
44 45 45 46 49 48 53 64 69 74 74 66 58 53 51 50 44 36 34 33 32 23 21 19 16 14 18 19 24 27 21 16 8 13 13 6 3 11
43 43 44 46 48 49 53 58 66 76 79 72 65 58 52 50 47 41 33 24 21 23 23 18 16 14 18 20 23 27 15 11 11 18 11 3 4 8
42 43 44 45 47 50 55 61 65 77 81 77 71 59 51 50 49 44 37 33 24 20 21 20 19 17 20 21 21 14 9 10 13 15 10 7 2 5
42 42 42 45 48 52 57 62 65 74 78 80 74 63 54 48 42 40 39 41 39 25 24 21 21 19 15 14 11 10 12 10 13 19 25 24 13 4
Wind_Direction_850mb
312 314 320 309 303 301 311 315 316 316 322 331 333 334 327 322 317 321 318 311 319 323 320 318 316 317 311 297 292 289 285 280 275 278 276 252 238 233
314 309 320 301 308 311 314 313 311 312 309 318 327 321 318 324 324 319 314 325 320 314 313 315 315 313 315 312 298 288 283 281 277 271 274 270 251 246
318 320 318 317 316 314 307 309 308 309 306 315 319 320 321 321 321 323 319 319 317 306 302 313 310 312 313 316 318 308 288 279 276 274 268 272 264 247
326 326 323 321 317 317 307 306 308 308 313 306 320 321 321 323 319 325 320 318 313 322 308 319 312 309 308 316 315 313 306 281 272 270 262 261 265 256
330 328 327 325 323 316 313 316 306 309 309 307 311 319 319 326 322 322 322 319 317 315 320 315 313 306 310 313 313 311 312 295 271 262 262 246 254 243
332 331 328 327 321 319 319 311 306 308 312 312 315 316 318 323 322 321 321 321 323 328 321 314 307 313 321 330 335 328 308 301 279 262 252 246 242 232
331 332 323 324 318 320 315 307 312 309 309 314 314 316 317 320 321 322 320 324 326 331 314 311 321 321 319 330 298 291 300 301 284 262 247 247 242 229
334 330 332 347 312 329 317 314 316 314 304 309 309 308 312 316 319 322 323 326 325 330 327 330 328 322 321 314 299 309 319 309 286 261 242 240 243 232
339 340 341 324 323 321 319 320 322 312 313 316 317 307 310 318 317 319 320 321 320 328 326 324 336 323 323 308 309 323 327 328 301 264 233 229 234 220
349 340 342 336 322 324 322 322 319 314 310 302 301 310 312 320 319 314 317 317 319 325 329 313 332 327 323 315 300 310 333 323 319 269 222 219 225 223
358 340 342 339 332 333 335 328 328 331 309 309 315 319 317 327 321 312 316 315 317 320 336 303 327 332 327 312 313 323 325 331 324 268 203 209 222 218
1 340 338 351 348 350 350 344 335 326 328 326 324 321 326 331 322 317 316 311 308 313 295 322 316 336 332 322 336 317 345 358 7 255 183 174 187 196
356 348 341 348 353 356 354 344 335 331 333 326 327 330 338 341 334 325 322 317 309 292 301 305 300 307 314 316 331 328 339 0 322 82 212 211 201 187
355 341 339 349 4 360 359 346 345 343 336 335 336 342 345 345 343 341 340 330 323 313 323 310 291 295 304 311 320 333 358 354 10 42 69 141 192 193
354 352 357 6 8 5 355 346 352 350 349 347 346 348 347 350 353 353 354 353 351 350 350 327 304 297 299 303 313 328 345 8 3 346 358 82 219 188
19 356 359 10 8 6 359 353 1 358 356 354 350 347 351 352 359 356 356 356 3 10 6 354 331 329 313 311 304 315 325 334 337 334 330 249 220 220
28 8 8 13 11 5 6 2 7 4 3 0 358 358 360 1 6 3 2 2 359 3 5 357 360 346 334 316 323 326 329 331 332 322 307 269 219 229
27 23 17 17 12 9 6 11 12 13 10 6 5 3 360 2 5 10 10 10 5 5 359 345 337 343 359 346 340 329 332 321 323 326 309 250 213 234
36 29 25 18 14 8 6 10 11 15 10 9 6 5 2 6 8 8 11 15 16 356 3 2 331 317 331 338 333 343 332 330 328 310 312 246 211 221
33 27 23 17 15 8 5 6 10 10 10 10 9 8 6 6 7 6 7 10 9 4 1 356 352 333 317 321 327 339 342 353 347 348 347 327 238 201
29 25 20 16 12 8 5 6 10 11 9 9 11 9 9 9 10 11 9 20 6 0 352 350 340 328 326 332 332 339 350 9 346 317 333 313 185 174
25 24 17 14 10 8 8 8 10 11 10 11 12 10 13 17 15 18 20 12 9 352 338 334 331 321 314 318 321 342 1 357 26 50 59 71 153 210
22 20 15 12 10 9 9 7 11 13 10 12 12 10 13 18 22 29 34 36 17 358 344 346 344 354 7 19 18 5 1 15 43 45 51 53 54 124